Theta_e
320 319 319 319 319 319 320 321 322 324 324 325 325 326 326 327 326 329 323 331 336 350 344 330 330 329 333 333 338 339 324 318 321 321 325 337 333 340 342 338 340 342 341 346 351
319 318 319 319 319 319 319 320 322 323 323 324 324 326 327 327 327 323 343 353 355 353 329 326 324 328 330 329 334 331 320 320 327 328 325 334 334 337 336 336 337 342 347 349 349
318 318 318 318 319 319 319 319 321 322 322 323 324 326 327 329 322 323 354 355 355 340 329 328 327 326 326 330 330 328 321 326 329 332 334 333 335 338 335 331 337 339 344 346 346
318 317 317 318 318 319 319 319 319 320 321 322 324 326 328 327 313 327 347 355 352 334 328 327 326 324 324 322 329 322 325 328 330 336 335 333 338 335 336 337 340 345 347 345 344
317 317 317 317 317 318 318 318 318 318 321 322 324 327 326 317 319 326 351 348 335 329 326 324 323 324 321 324 325 321 323 328 331 334 335 337 334 335 337 339 343 346 346 344 344
317 317 317 317 317 317 318 317 317 318 320 323 325 327 320 312 323 325 324 326 331 329 327 326 322 324 323 323 321 322 322 322 326 330 334 332 334 336 338 341 342 344 345 345 344
316 317 317 317 317 317 317 317 317 318 321 323 326 328 314 316 323 324 324 326 328 325 324 326 325 323 325 322 323 322 319 322 325 327 327 333 330 329 340 340 340 341 344 344 345
316 316 316 316 316 316 315 315 316 319 321 324 326 323 310 317 320 320 324 324 325 325 325 326 326 323 323 324 321 318 319 316 321 324 327 329 319 335 341 338 337 338 341 343 345
317 316 316 315 315 314 314 315 317 321 323 325 325 317 309 324 318 321 325 322 323 325 326 323 325 321 322 319 316 316 312 312 315 323 323 325 318 331 341 338 336 337 339 341 344
317 316 315 314 314 314 314 315 318 321 323 325 323 313 315 315 320 322 325 323 320 323 322 323 323 320 320 317 309 310 311 312 312 318 322 320 319 330 337 337 336 338 339 340 341
316 316 315 314 313 313 315 321 316 314 317 311 310 312 317 319 323 320 323 321 321 322 319 321 318 314 315 316 315 312 311 310 313 315 316 318 319 324 333 334 335 338 339 340 341
317 316 315 313 313 312 316 316 317 317 312 316 314 312 315 318 314 318 322 316 316 316 319 317 315 318 314 314 313 313 310 311 314 314 317 318 317 321 325 330 333 337 338 339 341
316 315 314 312 312 313 317 316 322 324 314 313 316 316 318 320 314 314 318 317 315 314 315 313 316 315 313 313 313 313 311 310 310 313 315 315 315 318 321 328 333 336 339 340 341
316 315 313 312 309 319 315 320 324 324 309 310 313 317 318 319 311 318 320 318 314 311 311 311 316 313 313 313 314 311 312 311 310 311 308 315 308 318 322 322 328 334 337 338 341
315 313 312 308 318 317 320 326 324 322 298 312 313 322 319 315 314 314 322 318 311 311 313 310 312 312 312 313 314 311 312 312 312 311 310 311 309 318 322 322 326 329 333 338 341
314 313 311 313 319 323 325 323 320 309 299 308 314 313 312 314 315 317 317 320 318 314 315 314 317 315 316 315 314 315 312 313 314 311 305 310 309 313 320 324 327 333 334 335 338
312 310 311 318 319 325 323 319 308 304 313 308 309 313 311 311 313 314 312 312 310 307 308 312 313 316 316 313 314 313 311 304 304 304 306 314 311 319 325 329 331 331 333 334 337
307 309 313 319 324 322 321 313 302 309 310 314 313 312 309 312 312 313 312 310 313 312 312 307 305 313 317 314 312 312 311 305 300 304 306 314 308 319 329 334 334 336 337 337 338
307 318 321 324 322 322 318 305 312 312 315 312 311 308 309 312 312 312 312 311 313 314 309 307 307 316 316 317 316 311 308 314 308 311 306 312 316 324 331 331 333 335 338 339 341
322 323 322 324 322 321 314 303 311 313 315 315 308 311 307 310 310 312 311 314 313 315 318 314 309 314 313 316 315 314 316 308 310 302 302 308 311 315 325 329 332 335 337 340 342
322 318 319 323 323 319 309 310 310 314 314 314 312 310 311 311 312 312 312 314 315 315 317 316 314 311 313 312 311 312 312 312 312 310 304 304 308 324 328 332 333 335 338 340 341
326 311 321 323 315 318 312 312 305 314 317 315 316 315 313 313 312 312 312 315 316 317 312 317 315 311 310 312 313 313 311 313 308 308 310 309 311 325 332 334 334 335 337 338 337
321 316 323 321 310 311 313 311 313 313 316 315 316 319 320 315 311 313 314 315 317 317 316 317 313 308 308 310 313 311 312 312 311 311 308 306 310 327 332 334 335 334 335 336 336
322 311 318 319 319 313 311 311 310 316 315 317 317 320 318 316 318 314 313 314 315 316 318 315 314 312 307 308 312 309 309 310 309 306 308 309 311 324 329 331 333 334 334 333 333
324 317 317 311 313 313 314 314 312 313 316 318 317 318 318 314 315 314 315 315 315 313 315 316 311 312 310 309 309 309 309 309 308 309 305 309 309 314 327 331 334 335 334 331 330
320 319 320 320 316 314 307 314 312 313 315 315 316 315 318 316 317 314 315 316 315 316 316 316 311 312 309 309 309 307 309 309 309 309 309 309 308 319 327 334 334 334 332 330 330
324 325 320 309 315 314 314 315 313 315 315 316 317 317 315 314 317 319 319 317 318 317 314 313 313 310 306 308 307 304 308 308 309 311 312 309 320 326 328 331 333 333 332 330 330
Wind_Speed
10 10 10 11 11 11 12 13 14 14 14 15 16 16 16 16 20 7 5 5 4 6 3 3 5 2 4 2 1 3 4 10 10 10 9 6 3 4 3 7 6 4 2 19 21
11 10 10 11 11 11 12 13 13 14 14 15 16 16 16 16 9 8 7 6 2 1 8 7 5 3 3 2 3 3 9 11 7 8 10 6 2 4 4 6 9 10 16 21 21
11 11 11 11 12 12 12 13 14 14 14 15 16 16 17 14 10 4 8 6 4 8 8 6 4 4 2 2 3 3 9 4 8 7 5 6 5 2 1 4 7 15 20 20 20
12 11 12 12 12 12 12 12 13 14 14 15 16 17 19 7 2 5 9 7 5 8 9 5 2 4 1 2 3 0 3 0 3 7 6 6 4 2 1 7 5 17 20 20 19
12 12 12 12 12 12 12 12 13 13 14 15 16 16 9 8 5 5 3 2 6 5 4 5 5 2 2 3 2 2 5 2 2 6 4 6 3 5 9 9 14 18 18 18 17
12 12 12 12 12 12 12 12 12 13 13 14 14 18 8 11 5 1 6 2 4 5 2 4 6 5 2 3 3 5 6 3 1 5 5 4 4 5 8 13 16 17 19 17 16
13 13 13 13 13 12 12 12 12 13 13 12 12 7 8 9 1 3 6 3 2 5 4 2 5 7 1 6 4 3 4 2 3 2 2 6 8 4 15 15 16 17 18 16 15
13 13 13 13 13 12 12 13 14 13 12 10 8 7 7 3 4 10 9 8 5 3 5 3 4 2 4 1 4 3 4 1 5 1 2 11 12 11 14 15 15 16 16 15 15
12 13 14 13 12 12 12 14 15 12 8 7 8 6 4 5 9 8 9 7 4 3 3 4 5 3 7 7 9 4 2 4 2 1 1 8 9 10 14 13 15 14 15 14 14
12 12 12 12 10 11 13 14 1 6 5 5 4 7 7 5 5 5 7 6 4 5 6 7 5 7 6 10 2 4 2 1 4 3 6 7 6 10 12 13 13 14 14 14 15
13 11 11 11 9 9 12 6 7 8 9 5 2 4 5 2 4 9 9 9 6 8 12 3 10 13 1 5 6 5 4 3 1 2 5 8 6 11 13 12 13 13 14 14 14
13 11 9 10 8 7 8 6 5 7 4 11 8 8 8 4 9 10 9 11 9 13 6 9 13 2 2 4 5 7 6 4 4 2 5 2 6 1 8 11 13 14 14 13 13
13 10 8 8 6 5 7 3 1 5 8 7 6 5 3 9 8 13 14 8 10 9 11 14 8 8 7 8 9 10 9 4 6 2 5 7 7 5 5 6 9 12 12 13 14
13 10 7 5 5 4 5 4 4 4 7 10 9 6 8 6 6 11 12 9 7 10 6 10 5 8 9 10 8 11 5 1 3 7 6 5 4 7 4 7 8 11 11 12 13
14 7 6 8 5 6 6 4 2 6 7 11 9 6 5 7 17 11 6 7 9 9 9 7 11 11 12 4 5 8 3 2 4 8 7 11 9 12 9 12 9 6 2 10 13
11 7 4 6 5 4 4 3 5 9 4 10 9 12 12 8 9 12 11 7 3 6 8 2 1 6 3 5 1 3 6 7 7 10 10 5 9 10 6 3 3 4 2 7 12
11 9 8 3 3 1 4 6 8 8 8 10 14 13 14 11 10 15 14 14 10 11 12 11 12 5 5 8 6 9 13 9 8 8 2 6 7 13 6 4 4 4 5 3 11
8 7 10 5 3 5 6 8 7 2 8 9 12 14 13 14 8 10 13 13 8 9 6 12 15 15 11 14 11 12 12 9 5 5 8 4 5 8 5 5 6 8 9 8 8
3 5 4 4 8 5 8 9 2 3 3 11 15 17 10 13 4 11 12 12 10 12 5 8 9 5 4 5 11 10 12 6 7 1 9 5 5 7 6 7 8 10 10 11 11
4 5 4 2 7 7 8 3 1 2 2 9 13 13 14 15 11 11 10 7 8 8 11 3 5 3 7 8 4 9 2 9 8 4 9 7 3 6 10 8 8 10 11 11 10
6 5 5 6 6 7 8 2 3 2 3 7 6 10 12 12 11 12 12 7 3 9 7 5 8 10 7 3 3 8 10 6 8 7 8 6 8 7 9 10 10 10 10 11 11
5 3 6 4 7 3 7 3 2 3 2 5 5 8 9 9 10 7 8 7 1 6 8 7 5 6 7 5 1 2 5 10 8 8 9 10 4 3 13 11 12 11 11 12 12
2 5 5 5 6 7 4 5 5 5 2 5 7 2 6 9 5 4 5 3 5 5 6 7 7 9 12 11 7 4 3 0 8 8 13 10 2 5 12 12 12 13 13 11 11
4 6 5 6 4 5 3 4 5 4 5 3 3 6 9 9 2 8 8 5 4 3 3 2 6 9 1 6 5 4 5 2 8 9 10 9 6 9 11 13 13 13 12 11 10
3 3 3 8 9 6 4 1 4 3 4 4 5 6 8 6 8 6 8 10 7 6 2 5 5 1 3 4 2 4 6 6 9 11 14 14 6 3 11 14 14 13 12 12 10
5 4 3 3 4 7 6 5 3 3 4 6 5 6 4 7 6 7 6 5 5 6 5 6 3 1 6 4 6 10 11 10 10 10 11 14 15 1 5 10 13 13 12 11 9
3 2 6 5 7 7 5 1 2 3 4 3 7 9 12 10 7 8 6 6 4 3 5 4 4 5 11 4 8 14 5 6 7 7 9 10 7 3 7 11 11 12 10 8 7
Wind_Direction
342 342 340 335 334 334 332 331 331 332 331 327 324 318 316 319 300 228 271 11 3 102 239 278 224 307 205 154 131 251 109 86 90 76 98 131 141 100 77 125 76 87 93 127 155
338 337 336 333 331 330 329 326 326 328 328 326 322 318 316 325 284 264 22 338 232 252 273 325 340 185 149 138 123 304 82 72 78 93 93 140 126 126 155 137 130 109 110 134 151
336 336 334 331 328 326 326 326 325 327 328 326 322 318 316 312 269 83 17 2 244 270 282 298 280 237 163 208 102 78 72 86 109 97 112 121 155 169 211 124 146 146 141 148 156
333 332 332 328 325 323 323 323 323 324 326 326 322 318 316 261 237 87 350 344 319 289 277 287 241 226 158 132 110 319 83 1 81 136 138 141 121 134 349 26 119 142 151 154 162
330 329 328 326 323 319 319 319 319 318 322 323 320 320 297 239 255 79 329 212 267 268 289 339 7 279 116 107 165 342 30 195 146 159 157 140 141 60 84 95 119 137 154 163 169
329 326 325 322 319 316 314 313 312 311 316 317 320 313 257 250 73 105 345 256 261 273 292 325 9 358 79 96 16 355 326 296 231 166 163 193 145 195 115 125 130 147 163 165 168
329 324 322 320 316 312 310 308 306 305 309 311 314 300 255 259 23 266 291 271 280 302 281 39 332 288 253 152 6 331 274 158 73 173 211 225 166 181 142 143 143 154 167 168 169
329 323 320 318 315 311 307 304 299 297 296 295 294 264 262 117 292 261 252 242 238 248 277 332 287 311 319 106 203 284 240 269 67 255 148 250 107 123 159 155 155 158 167 175 180
326 322 318 315 314 310 306 300 291 283 264 258 244 259 235 140 223 213 212 220 189 176 185 262 258 332 193 228 191 218 36 15 95 306 261 242 93 137 170 176 160 164 167 179 182
326 323 317 314 313 312 303 290 160 220 205 212 266 244 223 154 145 169 189 226 214 178 183 221 240 246 209 235 39 25 307 359 350 91 236 234 248 140 175 189 175 172 167 175 181
325 321 317 313 310 317 301 195 202 182 214 268 82 311 123 20 196 191 173 189 203 218 218 195 252 220 349 9 358 327 305 322 28 14 274 254 254 155 173 198 179 190 178 178 184
324 322 318 309 305 308 274 250 15 2 240 217 249 270 260 279 169 168 193 204 205 209 201 212 231 174 247 250 264 284 288 238 123 82 240 286 262 353 176 193 198 192 184 183 178
325 322 314 305 310 243 247 253 331 320 254 153 194 243 180 204 185 166 196 197 211 202 212 245 215 110 222 210 244 230 262 356 307 324 204 260 220 159 138 191 188 199 202 185 184
324 319 310 297 258 142 213 146 253 282 241 136 186 154 174 232 152 146 199 197 204 227 207 230 138 219 213 237 250 255 51 333 278 259 212 258 145 156 102 121 169 182 191 201 195
325 330 302 246 340 218 72 309 171 209 199 146 138 113 166 234 128 170 171 195 186 172 217 143 183 193 215 218 242 57 29 320 302 265 260 184 265 115 141 121 101 99 177 205 192
317 295 281 195 225 294 285 260 222 228 141 152 144 178 180 173 169 143 186 233 6 190 225 194 152 257 212 129 273 143 227 220 236 259 240 131 267 120 95 62 122 34 324 224 211
306 263 213 282 75 355 266 202 217 263 145 154 173 174 189 166 154 171 183 195 204 195 200 185 199 182 226 223 179 222 243 240 211 197 264 99 243 66 79 60 36 46 62 112 171
334 184 193 270 288 304 215 217 245 77 177 149 163 177 189 166 172 179 186 197 212 254 173 204 177 201 183 241 266 209 268 267 245 190 138 146 241 91 71 80 75 86 90 100 126
210 193 208 172 216 259 236 217 343 128 124 158 159 165 174 180 218 190 203 212 184 209 268 189 226 122 214 223 240 173 231 324 295 208 273 124 127 142 134 109 100 98 98 96 99
243 201 114 112 181 231 239 280 252 337 296 202 172 190 171 183 198 215 183 178 182 216 244 100 157 158 126 182 168 282 82 202 216 192 253 139 257 91 163 133 120 114 111 111 116
241 205 72 150 201 225 228 212 304 327 249 222 188 184 179 173 207 191 168 125 208 178 226 265 278 138 176 252 126 176 205 229 311 311 301 215 197 93 146 147 130 115 117 118 110
282 182 138 215 213 234 219 232 2 287 173 219 273 170 189 182 194 192 166 50 85 169 185 218 251 168 92 109 91 352 5 284 268 199 237 309 47 127 132 143 129 124 118 110 105
238 110 168 252 220 204 165 248 266 275 202 192 188 196 170 169 177 206 131 77 143 197 168 176 240 170 176 173 181 232 106 326 291 286 281 275 191 138 145 145 143 137 130 125 119
256 151 152 219 309 292 210 204 242 214 256 224 128 154 150 153 162 163 152 128 129 122 322 205 290 308 87 326 31 178 202 225 280 280 278 233 269 158 182 174 157 150 142 130 125
238 72 24 181 207 228 241 274 223 199 206 212 154 211 168 151 149 143 140 140 144 141 211 276 268 263 42 72 314 312 283 250 260 276 273 280 292 328 194 192 175 160 152 152 146
316 313 180 138 161 212 161 207 264 177 290 145 159 118 152 112 22 156 160 187 168 178 212 204 172 247 278 223 256 268 273 266 265 270 272 272 276 22 223 177 176 169 170 162 147
23 226 283 141 188 215 195 231 139 190 77 57 117 122 96 74 63 71 64 77 96 209 163 237 166 238 274 182 259 258 305 294 283 274 278 270 15 122 172 177 184 178 177 170 181